Content
SEND FEEDBACK

Daily
Averages
Monthly
Summary
United States of America

ST. LOUIS, MISSOURI


Home > North America > United States > Missouri
Elevation: 163 meters     Latitude: 38 45N     Longitude: 090 22W

WEATHER
 
SELECT A DAY
Number of Records: 199,638;   Date Range: 1/1/95 - 10/20/14
 
SHARE

PRINT THIS DATA

[ ← Previous Day ]
WEATHER ALMANAC - 3 MARCH, 2013
[ Next Day → ]
[ °F ]   °C
Weather ElementAverageHighLow
Temperature-0.7 °C3.9 °C (2:54 pm)-8.3 °C (5:54 am)
Dewpoint-7.8 °C-4.4 °C (11:54 pm)-10.6 °C (6:54 am)
Humidity61 %88 % (5:54 am)36 % (2:54 pm)
Barometer1020.7 hPa1024.4 hPa (1:54 am)1016.9 hPa (8:54 pm)
Wind Speed5.5 km/h13 km/h (11:54 pm)
Weather ElementAverage
Visibility15.4 km
Wind DirectionENE (64.8 °)

Weather ElementTotal
Precipitation---
Heating Degree Days20.6 (Base 18.3)
Averaged from 23 records on 3 March, 2013
WEATHER CONDITIONS BREAKOUT
WIND DIRECTION BREAKOUT
WEATHER BY HOUR - 3 MARCH, 2013
[ °F ]   °C
Local TimeTemperatureDewpointHumidityBarometerVisibilityWind DirectionWind SpeedGust SpeedPrecipitationEventsConditions
1:54 AM-5.6 °C-9.4 °C75 %1024.4 hPa16.1 kmCalmClear
2:54 AM-6.1 °C-9.4 °C78 %1023.7 hPa16.1 kmWest (270°)5.6 km/hClear
3:54 AM-7.2 °C-9.4 °C85 %1023.4 hPa14.5 kmCalmClear
4:54 AM-7.2 °C-10 °C81 %1023 hPa14.5 kmCalmClear
5:54 AM-8.3 °C-10 °C88 %1023.4 hPa16.1 kmCalmClear
6:54 AM-8.3 °C-10.6 °C84 %1023.4 hPa11.3 kmCalmClear
7:54 AM-6.1 °C-8.3 °C85 %1023.7 hPa11.3 kmCalmScattered Clouds
8:54 AM-3.3 °C-7.2 °C75 %1023.7 hPa14.5 kmCalmScattered Clouds
9:54 AM-1.1 °C-6.7 °C66 %1023.4 hPa16.1 kmCalmOvercast
10:54 AM1.1 °C-6.7 °C56 %1022.7 hPa16.1 kmENE (60°)7.4 km/hMostly Cloudy
11:54 AM1.1 °C-7.2 °C54 %1021.7 hPa16.1 kmCalmMostly Cloudy
12:54 PM2.2 °C-7.8 °C48 %1020.7 hPa16.1 kmSSE (160°)9.3 km/hOvercast
1:54 PM3.3 °C-8.9 °C41 %1020 hPa16.1 kmVariable5.6 km/hOvercast
2:54 PM3.9 °C-10 °C36 %1019 hPa16.1 kmSE (130°)9.3 km/hOvercast
3:54 PM3.9 °C-7.2 °C45 %1019 hPa16.1 kmESE (110°)9.3 km/hOvercast
4:54 PM3.3 °C-6.7 °C48 %1018.6 hPa16.1 kmEast (100°)5.6 km/hOvercast
5:54 PM2.8 °C-7.2 °C48 %1018.3 hPa16.1 kmEast (90°)11.1 km/hOvercast
6:54 PM2.8 °C-7.2 °C48 %1017.9 hPa16.1 kmEast (90°)9.3 km/hMostly Cloudy
7:54 PM2.8 °C-6.7 °C50 %1017.9 hPa16.1 kmESE (120°)11.1 km/hOvercast
8:54 PM3 °C-7 °C48 %1016.9 hPa16.1 kmESE (120°)11.1 km/hOvercast
9:54 PM2.8 °C-6.7 °C50 %1017.6 hPa16.1 kmESE (120°)9.3 km/hOvercast
10:54 PM2.8 °C-5.6 °C54 %1017.6 hPa16.1 kmVariable9.3 km/hOvercast
11:54 PM2.8 °C-4.4 °C59 %1017.3 hPa16.1 kmESE (120°)13 km/hOvercast
Hourly data recorded from KSUS, located 0 kilometers away from St. Louis, Missouri







STORIES FROM OUR PARTNERS